Appleton, WI

11:36 AM CDT on March 28, 2017 (GMT -0500)
Outagamie County Regional

Weather History for KATW - April, 2013

Change the Weather History Date:

Monday, April 8, 2013

  Actual Average Record
Temperature  
Mean Temperature 36 °F -  
Max Temperature 39 °F 48 °F 67 °F (1955)
Min Temperature 32 °F 30 °F 14 °F (1997)
Degree Days  
Heating Degree Days 30    
Moisture  
Dew Point 33 °F    
Average Humidity 90    
Maximum Humidity 100    
Minimum Humidity 81    
Precipitation  
Precipitation 0.00 in - - ()
Sea Level Pressure  
Sea Level Pressure 29.87 in    
Wind  
Wind Speed 8 mph (ENE)    
Max Wind Speed 16 mph    
Max Gust Speed -    
Visibility 8 miles    
Events Rain    
Averages and records for this station are not official NWS values.
T = Trace of Precipitation, MM = Missing Value Source: NWS Daily Summary

Daily Weather History Graph

Daily Weather History Graph

Search for Another Location

Airport or City:

Trip Planner

Search our weather history database for the weather conditions in past years. The results will help you decide how hot, cold, wet, or windy it might be!

Date:

Astronomy

Apr. 08, 2013 Rise Set
Actual Time 6:22 AM CDT 7:30 PM CDT
Civil Twilight 5:52 AM CDT 7:59 PM CDT
Nautical Twilight 5:16 AM CDT 8:35 PM CDT
Astronomical Twilight 4:39 AM CDT 9:13 PM CDT
Moon 5:15 AM CDT (4/8) 6:02 PM CDT (4/8)
Length of Visible Light 14h 07m
Length of Day
13h 08m
Waning Crescent, 3% of the Moon is Illuminated
Apr 8
Waning Crescent
Apr 10
New
Apr 18
First Quarter
Apr 25
Full
May 2
Last Quarter

Hourly Weather History & Observations

Time (CDT) Temp. Windchill Dew Point Humidity Pressure Visibility Wind Dir Wind Speed Gust Speed Precip Events Conditions
12:15 AM 33.8 °F 27.0 °F 30.2 °F 87% 29.92 in 10.0 mi SE 8.1 mph - N/A   Clear
12:35 AM 33.8 °F 27.0 °F 30.2 °F 87% 29.92 in 10.0 mi SE 8.1 mph - N/A   Clear
12:55 AM 33.8 °F 27.7 °F 30.2 °F 87% 29.90 in 10.0 mi ESE 6.9 mph - N/A   Clear
1:15 AM 33.8 °F 27.0 °F 30.2 °F 87% 29.89 in 10.0 mi ESE 8.1 mph - N/A   Clear
1:35 AM 32.0 °F 25.6 °F 30.2 °F 93% 29.89 in 10.0 mi SE 6.9 mph - N/A   Clear
1:55 AM 33.8 °F 27.7 °F 30.2 °F 87% 29.88 in 10.0 mi ESE 6.9 mph - N/A   Clear
2:15 AM 33.8 °F 26.4 °F 30.2 °F 87% 29.87 in 10.0 mi ESE 9.2 mph - N/A   Clear
2:35 AM 33.8 °F 25.3 °F 30.2 °F 87% 29.87 in 10.0 mi SE 11.5 mph - N/A   Clear
2:55 AM 35.6 °F 27.5 °F 30.2 °F 81% 29.86 in 10.0 mi SE 11.5 mph - N/A   Clear
3:15 AM 35.6 °F 29.2 °F 30.2 °F 81% 29.85 in 10.0 mi ESE 8.1 mph - N/A   Scattered Clouds
3:35 AM 35.6 °F 30.7 °F 30.2 °F 81% 29.84 in 10.0 mi East 5.8 mph - N/A   Mostly Cloudy
3:55 AM 35.6 °F 29.2 °F 30.2 °F 81% 29.84 in 10.0 mi East 8.1 mph - N/A   Mostly Cloudy
4:15 AM 35.6 °F 29.2 °F 30.2 °F 81% 29.83 in 10.0 mi East 8.1 mph - N/A   Mostly Cloudy
4:35 AM 35.6 °F 29.2 °F 30.2 °F 81% 29.83 in 10.0 mi ESE 8.1 mph - N/A   Overcast
4:55 AM 35.6 °F 29.9 °F 30.2 °F 81% 29.82 in 10.0 mi East 6.9 mph - N/A   Overcast
5:15 AM 35.6 °F 29.2 °F 30.2 °F 81% 29.81 in 10.0 mi East 8.1 mph - N/A   Overcast
6:45 AM 37.4 °F 31.4 °F 32.0 °F 81% 29.79 in 10.0 mi East 8.1 mph - N/A   Overcast
7:45 AM 37.4 °F 30.8 °F 32.0 °F 81% 29.76 in 10.0 mi East 9.2 mph - N/A   Overcast
8:55 AM 37.4 °F 31.4 °F 33.8 °F 87% 29.77 in 8.0 mi ESE 8.1 mph - N/A Rain Light Rain
9:45 AM 37.4 °F 32.8 °F 35.6 °F 93% 29.78 in 5.0 mi ENE 5.8 mph - N/A Rain Light Rain
10:50 AM 37.4 °F 30.8 °F 35.6 °F 93% 29.76 in 5.0 mi NE 9.2 mph - N/A Rain Light Rain
11:45 AM 37.4 °F 30.3 °F 37.4 °F 100% 29.74 in 4.0 mi NE 10.4 mph - N/A Rain Light Rain
12:45 PM 37.4 °F 28.5 °F 37.4 °F 100% 29.75 in 5.0 mi NNE 15.0 mph - N/A   Overcast
1:45 PM 37.4 °F 28.2 °F 37.4 °F 100% 29.78 in 5.0 mi NNE 16.1 mph - N/A Rain Light Rain
2:45 PM 37.4 °F 29.3 °F 37.4 °F 100% 29.73 in 7.0 mi NNE 12.7 mph - N/A   Overcast
3:45 PM 37.4 °F 30.8 °F 37.4 °F 100% 29.80 in 7.0 mi NE 9.2 mph - N/A   Overcast
4:50 PM 39.2 °F 33.6 °F 37.4 °F 93% 29.84 in 5.0 mi NNE 8.1 mph - N/A   Overcast
5:45 PM 39.2 °F 35.0 °F 37.4 °F 93% 29.87 in 7.0 mi North 5.8 mph - N/A   Overcast
6:45 PM 37.4 °F 33.8 °F 37.4 °F 100% 29.90 in 7.0 mi NNE 4.6 mph - N/A   Overcast
7:45 PM 37.4 °F 32.1 °F 37.4 °F 100% 29.92 in 7.0 mi NNE 6.9 mph - N/A   Overcast
8:45 PM 37.4 °F 32.8 °F 35.6 °F 93% 29.97 in 7.0 mi NNE 5.8 mph - N/A   Overcast
9:45 PM 35.6 °F 28.6 °F 35.6 °F 100% 29.99 in 10.0 mi NNE 9.2 mph - N/A   Overcast
10:45 PM 37.4 °F 31.4 °F 37.4 °F 100% 30.01 in 10.0 mi NNE 8.1 mph - N/A   Overcast
10:55 PM 35.6 °F 31.7 °F 33.8 °F 93% 30.02 in 7.0 mi NNE 4.6 mph - N/A   Overcast
11:15 PM 35.6 °F 30.7 °F 33.8 °F 93% 30.02 in 10.0 mi NE 5.8 mph - N/A   Overcast
11:35 PM 35.6 °F 31.7 °F 33.8 °F 93% 30.02 in 10.0 mi NE 4.6 mph - N/A   Overcast
11:55 PM 35.6 °F 30.7 °F 33.8 °F 93% 30.02 in 10.0 mi NNE 5.8 mph - N/A   Overcast